Regional Weather Roundup
Issued by NWS Cleveland, OH

Home | Current Version | Previous Version | Graphics & Text | Print | Product List | Glossary On
Versions: 1 2 3 4 5 6 7 8 9 10 11 12 13 14 15 16 17 18 19 20 21 22 23 24 25 26 27 28 29 30 31 32 33 34 35 36 37 38 39 40 41 42 43 44 45 46 47 48 49 50
000
ASUS41 KCLE 270910
RWRCLE
OHIO REGIONAL WEATHER ROUNDUP
NATIONAL WEATHER SERVICE CLEVELAND, OH
500 AM EDT WED JUL 27 2016

NOTE: "FAIR" INDICATES FEW OR NO CLOUDS BELOW 12,000 FEET WITH NO
SIGNIFICANT WEATHER AND/OR OBSTRUCTIONS TO VISIBILITY.

OHZ001>008-015>018-024>027-034-035-043-044-271000-
   NORTHWEST OHIO

CITY           SKY/WX    TMP DP  RH WIND       PRES   REMARKS
DEFIANCE       CLEAR     67  63  87 CALM      30.00S
FINDLAY        CLEAR     69  60  73 MISG      30.00S
TOLEDO EXPRESS CLEAR     65  63  93 CALM      30.01R
TOLEDO EXEC    CLEAR     66  62  87 CALM      30.01S
LIMA           MOCLDY    69  61  75 S3        30.01S
$$

OHZ009>014-019>023-028>033-038-089-271000-
   NORTHEAST OHIO

CITY           SKY/WX    TMP DP  RH WIND       PRES   REMARKS
CLE-HOPKINS    PTCLDY    64  57  78 CALM      30.03R
CLE-LAKEFRONT  CLEAR     71  57  61 S10       29.99R
CUY CO. ARPT   NOT AVBL
LORAIN-ELYRIA  CLEAR     62  57  83 CALM      30.02R
ASHTABULA      CLEAR     60  59  96 CALM      30.03R
AKRON-CANTON   CLOUDY    70  59  68 CALM      30.02S
WOOSTER        PTCLDY    64  59  83 CALM      30.03S
MANSFIELD      PTCLDY    69  55  60 CALM      30.02F
YOUNGSTOWN     CLOUDY    64  60  87 CALM      30.02S
$$

OHZ042-051>053-060>062-070>072-077>081-271000-
  SOUTHWEST OHIO

CITY           SKY/WX    TMP DP  RH WIND       PRES   REMARKS
CINC-COVINGTON CLOUDY    75  73  93 CALM      30.00S
CINC-LUNKEN    PTCLDY    73  73 100 CALM      29.99F FOG
HAMILTON       CLOUDY    71  69  93 CALM      30.00S
DAYTON         MOCLDY    70  68  93 CALM      30.01S
WRIGHT-PAT AFB CLEAR     71  71  99 NE1       30.00R
DAYTON GENERAL MOCLDY    73  68  84 CALM      30.00S
WILMINGTON     CLOUDY    71  71 100 CALM      30.01S FOG
$$

OHZ036-037-039>041-045>050-054>059-063>069-073>076-082>088-271000-
  CENTRAL AND SOUTHEAST OHIO

CITY           SKY/WX    TMP DP  RH WIND       PRES   REMARKS
COLUMBUS       CLOUDY    74  62  66 E3        29.99S
OSU AIRPORT    CLOUDY    72  63  73 NE5       30.00S
BOLTON FIELD   CLOUDY    72  72 100 CALM      30.01R FOG
RICKENBACK AFB CLOUDY    72  72  99 CALM      29.99S FOG
NEWARK         CLOUDY    71  65  81 CALM      29.99F
MARION         MOCLDY    67  61  81 CALM      30.02R
LANCASTER      CLOUDY    73  72  96 CALM      30.00S
ZANESVILLE     CLOUDY    74  66  76 SE3       30.00S
NEW PHILLY     CLOUDY    74  61  63 CALM      30.01S
$$




USA.gov is the U.S. government's official web portal to all federal, state and local government web resources and services.